Ellington Field, TX

9:30 PM CDT on June 28, 2017 (GMT -0500)
Ellington

Weather History for KEFD - November, 2012

Change the Weather History Date:

Monday, November 12, 2012

  Actual Average Record
Temperature  
Mean Temperature 60 °F -  
Max Temperature 66 °F 70 °F 86 °F (2003)
Min Temperature 51 °F 53 °F 46 °F (2014)
Degree Days  
Heating Degree Days 6    
Growing Degree Days 10 (Base 50)    
Moisture  
Dew Point 43 °F    
Average Humidity 58    
Maximum Humidity 94    
Minimum Humidity 30    
Precipitation  
Precipitation 0.00 in - - ()
Sea Level Pressure  
Sea Level Pressure 30.33 in    
Wind  
Wind Speed 14 mph (North)    
Max Wind Speed 22 mph    
Max Gust Speed 24 mph    
Visibility 9 miles    
Events Rain    
Averages and records for this station are not official NWS values.
T = Trace of Precipitation, MM = Missing Value Source: NWS Daily Summary

Daily Weather History Graph

Daily Weather History Graph

Search for Another Location

Airport or City:

Trip Planner

Search our weather history database for the weather conditions in past years. The results will help you decide how hot, cold, wet, or windy it might be!

Date:

Astronomy

Nov. 12, 2012 Rise Set
Actual Time 6:42 AM CST 5:26 PM CST
Civil Twilight 6:17 AM CST 5:51 PM CST
Nautical Twilight 5:49 AM CST 6:20 PM CST
Astronomical Twilight 5:20 AM CST 6:48 PM CST
Moon 5:13 AM CST (11/12) 4:30 PM CST (11/12)
Length of Visible Light 11h 33m
Length of Day
10h 43m
Waning Crescent, 2% of the Moon is Illuminated
Nov 12
Waning Crescent
Nov 13
New
Nov 20
First Quarter
Nov 28
Full
Dec 6
Last Quarter

Hourly Weather History & Observations

Time (CST) Temp. Dew Point Humidity Pressure Visibility Wind Dir Wind Speed Gust Speed Precip Events Conditions
12:50 AM 62.6 °F 57.2 °F 82% 30.14 in 3.0 mi North 15.0 mph - N/A Rain Rain
1:50 AM 59.0 °F 57.2 °F 94% 30.16 in 10.0 mi North 11.5 mph - N/A   Overcast
2:50 AM 59.0 °F 57.2 °F 94% 30.16 in 7.0 mi North 15.0 mph - N/A   Mostly Cloudy
3:50 AM 59.0 °F 57.2 °F 94% 30.20 in 7.0 mi North 15.0 mph - N/A   Overcast
4:50 AM 59.0 °F 57.2 °F 94% 30.22 in 7.0 mi NNE 10.4 mph 19.6 mph N/A   Overcast
5:50 AM 59.0 °F 57.2 °F 94% 30.22 in 10.0 mi NNE 13.8 mph - N/A   Overcast
6:50 AM 59.0 °F 55.4 °F 88% 30.30 in 10.0 mi North 10.4 mph - N/A   Mostly Cloudy
7:50 AM 57.2 °F 51.8 °F 82% 30.34 in 10.0 mi North 13.8 mph - N/A   Mostly Cloudy
8:50 AM 59.0 °F 51.8 °F 77% 30.36 in 10.0 mi NNW 16.1 mph - N/A   Mostly Cloudy
9:50 AM 59.0 °F 48.2 °F 67% 30.37 in 10.0 mi North 15.0 mph - N/A   Mostly Cloudy
10:50 AM 60.8 °F 42.8 °F 52% 30.36 in 10.0 mi North 16.1 mph - N/A   Scattered Clouds
11:50 AM 64.4 °F 37.4 °F 37% 30.34 in 10.0 mi North 18.4 mph - N/A   Scattered Clouds
12:50 PM 66.2 °F 37.4 °F 35% 30.34 in 10.0 mi North 21.9 mph 24.2 mph N/A   Scattered Clouds
1:50 PM 66.2 °F 37.4 °F 35% 30.34 in 10.0 mi North 15.0 mph - N/A   Scattered Clouds
2:50 PM 66.2 °F 35.6 °F 32% 30.33 in 10.0 mi North 13.8 mph - N/A   Scattered Clouds
3:50 PM 66.2 °F 33.8 °F 30% 30.34 in 10.0 mi North 12.7 mph - N/A   Scattered Clouds
4:50 PM 66.2 °F 33.8 °F 30% 30.36 in 10.0 mi NNE 15.0 mph - N/A   Scattered Clouds
5:50 PM 62.6 °F 32.0 °F 32% 30.37 in 10.0 mi North 10.4 mph - N/A   Scattered Clouds
6:50 PM 60.8 °F 32.0 °F 34% 30.39 in 10.0 mi North 8.1 mph - N/A   Partly Cloudy
7:50 PM 59.0 °F 33.8 °F 39% 30.41 in 10.0 mi NNE 13.8 mph - N/A   Partly Cloudy
8:50 PM 57.2 °F 32.0 °F 38% 30.44 in 10.0 mi NNE 10.4 mph - N/A   Clear
9:50 PM 55.4 °F 32.0 °F 41% 30.44 in 10.0 mi NNE 12.7 mph - N/A   Clear
10:50 PM 53.6 °F 32.0 °F 44% 30.44 in 10.0 mi NNE 10.4 mph - N/A   Clear
11:50 PM 51.8 °F 32.0 °F 47% 30.44 in 10.0 mi NNE 10.4 mph - N/A   Clear